Regional Weather Roundup
Issued by NWS Northern Indiana

Home | Current Version | Previous Version | Text Only | Print | Product List | Glossary Off
Versions: 1 2 3 4 5 6 7 8 9 10 11 12 13 14 15 16 17 18 19 20 21 22 23 24 25 26 27 28 29 30 31 32 33 34 35 36 37 38 39 40 41 42 43 44 45 46 47 48 49 50

000
ASUS43 KIWX 132010
RWRIWX

KIWX WEATHER ROUNDUP
NATIONAL WEATHER SERVICE NORTHERN INDIANA
400 PM EDT SUN JUL 13 2014

NOTE: "FAIR" INDICATES FEW OR NO CLOUDS BELOW 12,000 FEET WITH NO
SIGNIFICANT WEATHER AND/OR OBSTRUCTIONS TO VISIBILITY.

* THESE STATIONS ARE NOT UNDER NWS QUALITY CONTROL. THEY ALSO MAY NOT
  REPORT WEATHER SUCH AS PRECIPITATION OR FOG.

INZ001>027-132100-
NORTHERN INDIANA

CITY           SKY/WX    TMP DP  RH WIND       PRES   REMARKS
GARY*          MOSUNNY   82  64  54 VRB5      29.92F
VALPARAISO     MOSUNNY   83  65  54 N6        29.93S
MICHIGAN CITY* SUNNY     79  61  53 W5        29.94R
LAPORTE*       SUNNY     79  60  51 NW10G20   29.94S
KNOX*          MOSUNNY   81  64  57 CALM      29.92R
SOUTH BEND     SUNNY     80  61  52 W8        29.93R
GOSHEN         MOSUNNY   81  66  60 W10       29.92R
MONTICELLO*    PTSUNNY   80  69  68 W5        29.93S
LOGANSPORT*    PTSUNNY   81  66  61 W9        29.94F
ROCHESTER*     MOSUNNY   82  66  57 W7        29.93S
WARSAW*        MOSUNNY   81  64  57 SW7       29.93R
ANGOLA*        MOSUNNY   82  66  57 NW8       29.92R
FORT WAYNE     CLOUDY    84  66  54 W12       29.92F
HUNTINGTON*    PTSUNNY   81  68  64 W6        29.92S
PERU/GRISSOM   PTSUNNY   82  71  69 W8        29.94S
MARION*        PTSUNNY   81  69  65 W9        29.94F

$$
INZ028>050-132100-
CENTRAL INDIANA

CITY           SKY/WX    TMP DP  RH WIND       PRES   REMARKS
LAFAYETTE      PTSUNNY   81  68  64 NW7       29.94F
KOKOMO*        PTSUNNY   82  70  65 NW13      29.93F
MUNCIE*        PTSUNNY   83  70  64 W12       29.93F
INDIANAPOLIS   PTSUNNY   84  71  65 W10       29.93F

$$
MIZ043>046-050>051-056>058-064>065-071>073-077>080-132100-
SOUTHWEST LOWER MICHIGAN

CITY           SKY/WX    TMP DP  RH WIND       PRES   REMARKS
BATTLE CREEK   SUNNY     81  61  50 W13       29.92R
BENTON HARBOR  SUNNY     75  61  61 W10       29.92F
COLDWATER*     MOSUNNY   80  67  64 W9        29.91R
HILLSDALE*     MOSUNNY   79  67  66 W7        29.92R
HOLLAND        SUNNY     78  64  61 W12       29.91F
GRAND RAPIDS   MOSUNNY   78  65  63 SW9       29.89R
KALAMAZOO      SUNNY     80  61  52 NW10      29.91F
STURGIS*       CLOUDY    79  66  65 W6        29.91R
THREE RIVERS*  FAIR      81  64  57 NW10      29.92R

$$
OHZ001>008-015>018-024>025-132100-
NORTHWEST OHIO

CITY           SKY/WX    TMP DP  RH WIND       PRES   REMARKS
WAUSEON*       FAIR      82  66  57 W10       29.90R
DEFIANCE       MOSUNNY   83  65  54 VRB7      29.90F
FINDLAY        MOSUNNY   85  68  56 W16G23    29.89F
TOLEDO EXPRESS MOSUNNY   85  65  51 W12       29.88F
TOLEDO METCALF MOSUNNY   85  64  49 W14       29.88F
LIMA           MOSUNNY   85  69  58 W12G22    29.91F

$$
&&



USA.gov is the U.S. government's official web portal to all federal, state and local government web resources and services.